Location: Burgau
(48.4309°N, 10.4086°E)
Time: 21:47:10
(UTC+00:00)

Daily predictions for brighter satellites

Satellite Brightness Start Highest point End
(mag) Time Altitude Azimuth Time Altitude Azimuth Time Altitude Azimuth
Nadezhda 4 Rocket 4.4 17:40:35 10° N 17:46:35 44° ENE 17:52:34 10° SE
NOSS 3-3 (C) 4.0 17:41:50 10° SSW 17:46:58 50° ESE 17:52:58 10° NE
NOAA 6 4.3 17:44:33 10° SSE 17:49:40 79° WSW 17:54:50 10° NNW
Cosmos 2237 Rocket 2.2 17:44:07 10° SSW 17:49:42 73° ESE 17:55:20 10° NNE
CZ-4B R/B 3.8 17:45:28 10° SE 17:49:59 43° ENE 17:54:36 10° N
Cosmos 1766 Rocket 3.7 17:46:08 10° S 17:50:31 86° W 17:54:59 10° N
Cosmos 1570 Rocket 4.1 17:45:28 10° S 17:50:38 59° ESE 17:55:47 10° NNE
Cosmos 1125 Rocket 3.5 17:46:16 10° NNW 17:51:30 85° ENE 17:56:43 10° SSE
Cosmos 1726 4.1 17:49:40 10° SW 17:52:00 25° WNW 17:54:21 10° NNW
Cosmos 1891 Rocket 4.5 17:46:21 10° S 17:52:26 67° E 17:58:41 10° NNE
In-Cosmos 22 4.3 17:47:29 10° N 17:53:02 56° ENE 17:58:25 10° SSE
USA 267 3.8 17:47:23 10° NE 17:53:49 59° NNW 18:00:15 10° W
USA 186 3.6 17:52:47 10° ESE 17:54:47 16° ENE 17:56:47 10° NNE
Cosmos 1943 Rocket 2.4 17:49:37 10° NNW 17:55:09 78° WSW 18:00:41 10° SSE
SJ-6B 3.3 17:51:56 10° SE 17:55:13 35° ENE 17:58:30 10° N
Okean 3 Rocket 3.6 17:51:21 10° S 17:55:42 57° E 18:00:02 10° NNE
KORONAS-FOTON 4.0 17:52:08 10° NNW 17:55:49 72° W 17:59:27 10° S
Cosmos 2150 Rocket 4.2 17:51:02 10° NNW 17:56:04 51° ENE 18:01:05 10° SE
Iridium 4 Rocket 3.2 17:52:04 10° N 17:56:14 76° W 18:00:33 10° S
NOSS 3-3 (A) 3.8 17:51:44 10° SSW 17:57:00 62° SE 18:03:11 10° NE
Cosmos 1408 Rocket 4.1 17:53:48 10° SSE 17:57:48 36° E 18:01:53 10° NNE
SL-08 R/B 3.8 17:54:00 10° NNE 17:58:38 39° E 18:03:11 10° SSE
Cosmos 2298 Rocket 4.2 17:53:57 10° NNW 17:59:11 55° ENE 18:04:23 10° SE
SeaSat 1 2.4 17:56:54 10° NNE 18:01:49 67° ESE 18:06:41 10° SSW
Cosmos 158 Rocket 3.8 17:57:05 10° S 18:01:53 64° ESE 18:06:44 10° NNE
Helios 1A 3.7 17:58:50 10° NE 18:02:24 28° E 18:05:57 10° SSE
Cosmos 1513 Rocket 4.4 17:58:02 10° S 18:04:03 74° E 18:10:13 10° NNE
Sich 1 3.8 18:01:17 10° SSE 18:05:02 30° E 18:08:50 10° NNE
Okean O Rocket 3.2 18:03:42 10° E 18:06:32 17° ENE 18:09:26 10° NNE
COSMO-SKYMED 1 3.7 18:03:10 10° N 18:07:22 48° WNW 18:11:32 10° SW
Tiangong 0.0 18:05:49 10° SSW 18:07:30 14° SSE 18:09:05 10° SE
Cosmos 1656 Rocket 4.2 18:03:30 10° NNW 18:08:53 43° NE 18:14:09 10° SE
Cosmos 1607 4.3 18:03:56 10° S 18:10:04 48° ESE 18:16:12 10° NE
Cosmos 2297 4.3 18:05:01 10° NNW 18:10:18 40° NE 18:15:21 11° ESE
Aureole 3 Rocket 4.0 18:06:23 10° SSE 18:11:16 32° E 18:15:00 10° NNE
Cosmos 2369 Rocket 2.9 18:09:50 10° NNW 18:15:08 37° NE 18:19:40 13° ESE
Helios 1B rocket 3.3 18:11:34 10° S 18:15:17 49° W 18:19:03 10° NNW
CZ-4 R/B 1.7 18:11:46 10° SE 18:15:27 43° ENE 18:19:13 10° N
GRACE-FO 1 4.4 18:12:09 10° S 18:15:37 66° E 18:19:07 10° N
DMSP B5D1-3 4.4 18:10:33 10° NNE 18:15:38 68° ESE 18:20:41 10° S
GRACE-FO 2 4.4 18:12:34 10° S 18:16:03 67° E 18:19:33 10° N
TRACE 4.3 18:14:28 10° NNE 18:17:50 77° ESE 18:21:10 10° S
Meteor 1-23 Rocket 4.4 18:12:30 10° N 18:18:02 51° ENE 18:23:35 10° SSE
Cosmos 1464 Rocket 4.0 18:11:45 10° S 18:18:03 73° E 18:24:26 10° NNE
ARIANE 6 FM1 Upper Stage 4.1 18:17:05 10° SSE 18:20:02 18° ESE 18:21:45 15° E
Cosmos 1980 4.2 18:14:53 10° SW 18:20:32 66° WNW 18:26:13 10° NNE
NOSS 3-4 (A) 4.0 18:15:05 10° NW 18:21:43 61° NE 18:28:32 14° ESE
NOSS 3-4 (C) 4.0 18:15:11 10° NW 18:21:49 61° NE 18:28:36 14° ESE
CZ-4B R/B 3.1 18:21:15 10° SSE 18:25:11 53° ENE 18:29:18 10° N
Meteor 1-13 Rocket 4.3 18:21:33 10° NNW 18:27:25 87° W 18:33:05 10° S
Cosmos 1805 Rocket 3.7 18:24:37 10° SSE 18:28:46 49° E 18:32:59 10° NNE
Cosmos 2228 Rocket 4.2 18:26:32 10° NNE 18:30:28 27° ENE 18:32:38 19° ESE
Cosmos 1441 Rocket 4.0 18:29:41 16° SE 18:31:33 25° E 18:34:30 10° NE
Cosmos 2084 Rocket 4.2 18:30:05 10° S 18:33:53 31° ESE 18:37:01 13° ENE
Resurs 01 Rocket 1.8 18:30:24 11° SE 18:34:34 50° ENE 18:38:52 10° N
Cosmos 1975 3.4 18:31:09 10° SSE 18:34:40 34° E 18:38:12 10° NNE
Okean-O 4.0 18:39:42 20° E 18:40:48 22° ENE 18:44:09 10° NNE
Cosmos 2034 Rocket 3.9 18:39:04 10° S 18:45:14 78° E 18:51:24 10° NNE
Cosmos 1707 Rocket 4.2 18:42:21 10° N 18:46:25 34° ENE 18:47:57 26° ESE
Meteor PRIRODA 3.9 18:43:28 10° S 18:46:41 57° WSW 18:49:56 10° NNW
USA 306 3.4 18:44:09 10° NW 18:47:14 37° NNE 18:48:52 24° ENE
ERS-1 Rocket 4.5 18:46:19 17° ENE 18:47:23 18° ENE 18:50:45 10° NNE
ISS -3.0 18:44:20 10° WNW 18:47:36 46° N 18:49:13 25° ENE
Cosmos 1666 Rocket 4.3 18:51:16 28° ESE 18:51:48 29° E 18:55:34 10° NNE
ACS3 Solar Sail 2.0 18:48:36 15° SE 18:53:52 55° ENE 19:00:06 10° N
Meteor 2-12 Rocket 4.5 18:47:48 10° N 18:53:55 60° ENE 18:59:03 15° SSE
SL-16 R/B 2.1 18:49:35 10° SSW 18:55:13 74° ESE 19:00:54 10° NNE
Cosmos 1315 Rocket 4.1 18:53:35 10° NNW 18:57:21 42° W 19:01:05 10° SSW
Cosmos 1805 3.2 18:54:11 10° SSW 18:57:49 73° W 19:01:30 10° N
Okean 3 3.7 19:03:56 10° N 19:07:58 45° ENE 19:08:32 42° E
Cosmos 1943 3.8 19:07:43 32° ESE 19:08:16 33° ESE 19:13:14 10° NE
ATLAS CENTAUR R/B 3.8 19:06:11 10° WNW 19:08:49 18° NNW 19:11:33 10° NNE
SL-14 R/B 3.7 19:05:56 10° NNW 19:09:43 60° W 19:12:46 15° S
Cosmos 783 Rocket 4.4 19:05:55 10° SSW 19:11:09 74° ESE 19:16:24 10° NNE
ATLAS 2AS CENTAUR R/B 4.3 19:06:01 10° NW 19:11:33 24° N 19:16:25 12° ENE
SL-24 R/B 4.5 19:09:51 33° SE 19:11:42 54° E 19:16:27 10° N
PSLV R/B 4.2 19:14:51 39° NE 19:14:51 39° NE 19:17:40 10° N
Meteor 1-21 4.3 19:09:06 10° NNW 19:14:55 86° W 19:19:45 15° S
CSL-04 Rocket 3.6 19:11:58 17° SSE 19:16:06 84° WSW 19:21:25 10° NNW
Ariane Rocket 4.5 19:17:37 20° ENE 19:17:39 20° ENE 19:21:17 10° NNE
CZ-4B R/B 3.3 19:13:15 14° S 19:17:58 75° WSW 19:23:18 10° NNW
Cosmos 2263 4.1 19:13:31 10° NNW 19:19:15 74° ENE 19:21:32 37° SE
MOS 1 4.4 19:17:17 36° SE 19:19:24 55° ENE 19:24:56 10° N
USA 186 3.3 19:24:41 22° SSW 19:26:12 35° W 19:29:12 10° NNW
Cosmos 2237 Rocket 4.4 19:29:47 10° W 19:34:21 25° NW 19:38:56 10° N
USA 267 4.2 19:31:14 15° ENE 19:36:14 42° N 19:42:19 10° WNW
Cosmos 2026 Rocket 4.5 19:31:21 10° NNW 19:37:23 57° W 19:43:19 10° S
Cosmos 1766 3.6 19:41:43 54° N 19:41:43 54° N 19:44:40 10° N
Cosmos 2266 Rocket 4.2 19:35:46 10° N 19:41:55 50° ENE 19:42:49 47° E
Okean O Rocket 1.9 19:41:03 43° SSW 19:42:19 64° WSW 19:46:44 10° NNW
GEOS 3 Rocket 3.6 19:41:58 51° SSE 19:43:17 77° SW 19:48:29 10° NW
Tiangong 0.8 19:40:59 10° SW 19:41:06 11° SW 19:41:06 11° SW
CZ-4 R/B 3.9 19:47:28 10° SW 19:50:11 18° W 19:52:56 10° NW
SPOT 5 2.6 19:54:01 83° NNW 19:54:01 83° NNW 19:58:14 10° NNW
ARIANE 6 FM1 Upper Stage 3.2 19:54:38 10° SW 19:58:11 57° WSW 19:58:11 57° WSW
Cosmos 2369 Rocket 3.1 19:53:51 10° NW 19:59:16 45° WSW 20:01:29 31° SSW
Okean 2 4.0 19:55:58 10° NNW 19:59:09 53° NNW 19:59:09 53° NNW
Terra 2.3 20:00:58 47° NNE 20:00:58 47° NNE 20:04:40 10° N
Cosmos 2344 4.4 19:53:54 10° NW 20:01:23 45° NNE 20:05:08 32° E
BREEZE-M DEB (TANK) 3.5 19:45:41 10° W 20:02:25 89° SSW 20:03:29 63° ESE
Aureole 3 3.8 19:59:13 10° N 20:03:53 89° ENE 20:03:54 89° ESE
Okean 1-7 3.6 20:04:04 10° NNW 20:07:26 53° NNW 20:07:26 53° NNW
Cosmos 1633 Rocket 3.6 20:09:43 55° W 20:09:47 55° WNW 20:14:07 10° N
Resurs 01 Rocket 4.0 20:08:05 10° SW 20:11:16 19° W 20:14:29 10° NW
MetOp-B 4.2 20:11:40 65° SW 20:12:13 70° WSW 20:17:36 10° NNW
Cosmos 2084 Rocket 4.5 20:08:43 10° WSW 20:12:49 43° NW 20:13:11 42° NNW
Cosmos 1538 Rocket 4.0 20:13:36 82° NNW 20:13:36 82° NNW 20:18:48 10° NNE
Okean-O 3.4 20:17:08 47° W 20:17:08 47° W 20:21:09 10° NNW
Cosmos 1980 Rocket 4.4 20:15:48 10° N 20:18:01 12° NNE 20:19:05 12° NE
MOS 1 Rocket 3.8 20:20:11 65° WSW 20:20:22 66° W 20:25:45 10° NNW
Spot 2 Rocket 4.0 20:23:41 54° N 20:23:41 54° N 20:27:36 10° N
SL-08 ROCKET BODY 4.3 20:16:51 10° N 20:23:01 86° W 20:23:16 82° SSW
ISS -0.8 20:21:15 10° WNW 20:22:09 17° WNW 20:22:09 17° WNW
ERS-1 Rocket 3.3 20:26:14 64° NW 20:26:14 64° NW 20:30:36 10° NNW
IRS-1A Rocket 4.4 20:27:25 69° WSW 20:27:35 70° WSW 20:33:13 10° NNW
ACS3 Solar Sail 3.4 20:33:51 15° SW 20:38:10 30° W 20:43:45 10° NNW
SL-16 R/B 4.3 20:35:19 10° W 20:39:56 25° NW 20:44:33 10° N
SPOT 3 Rocket 4.3 20:41:30 48° N 20:41:30 48° N 20:45:11 10° NNW
Meteor 2-5 Rocket 4.4 20:40:05 10° N 20:44:37 51° NNE 20:44:37 51° NNE
Cosmos 1943 4.1 20:49:01 24° WSW 20:52:06 47° NW 20:57:35 10° NNE
Ariane Rocket 4.1 20:57:45 41° NNW 20:57:45 41° NNW 21:01:09 10° NNW
Cosmos 1697 Rocket 4.2 20:54:52 10° NNW 20:58:31 28° NNE 20:58:31 28° NNE
Cosmos 1655 Rocket 4.3 20:57:46 10° NNW 21:03:30 63° WNW 21:03:30 63° WNW
ATLAS 2AS CENTAUR R/B 3.3 20:57:32 10° NW 21:03:49 47° NNE 21:03:49 47° NNE
USA 267 3.7 21:18:34 53° NNE 21:18:34 53° NNE 21:24:55 10° NW
Terra 4.3 21:39:40 16° WNW 21:39:40 16° WNW 21:41:23 10° NW
Cosmos 1980 Rocket 4.1 21:58:16 10° NNW 22:00:49 25° N 22:00:49 25° N
Cosmos 2344 4.2 22:08:06 10° NW 22:15:07 62° W 22:15:07 62° W
ATLAS 2AS CENTAUR R/B 4.4 22:48:39 10° NW 22:51:13 24° WNW 22:51:13 24° WNW
Cosmos 2322 Rocket 4.4 23:04:38 10° N 23:07:17 21° NNE 23:07:17 21° NNE
Cosmos 2082 Rocket 4.5 23:26:45 19° NNE 23:26:45 19° NNE 23:28:15 10° NNE
SL-16 R/B 4.4 23:33:06 10° NNW 23:34:52 20° NNW 23:34:52 20° NNW
Cosmos 2333 Rocket 4.3 23:49:09 10° NNW 23:51:31 23° N 23:51:31 23° N
